Wetterdaten: Mittwoch, 29.04.2015
Datum Zeit Temp. A. Feuchte A. Luftdruck Regen Wind Richtung Richtung Sonnenschein ET UV Solar Taupunkt Windchill Windben Empfang
29.04.2015 00:00 6,6 C 84 % 1020,9 hPa 0,0 l/m 3,2 km/h (1 Bft) W-NW 291 0 min 0,000 mm 0,0 UV-I 0 W/m 4,1 C 6,6 C 7,9 km/h (2 Bft) 0,00 %
29.04.2015 00:15 6,5 C 85 % 1020,8 hPa 0,0 l/m 0,0 km/h (0 Bft) S-SW 201 0 min 0,000 mm 0,0 UV-I 0 W/m 4,2 C 6,5 C 0,0 km/h (0 Bft) 0,00 %
29.04.2015 00:30 6,4 C 85 % 1021,0 hPa 0,0 l/m 2,2 km/h (1 Bft) SO 140 0 min 0,000 mm 0,0 UV-I 0 W/m 4,1 C 6,4 C 7,9 km/h (2 Bft) 0,00 %
29.04.2015 00:45 6,2 C 86 % 1021,2 hPa 0,0 l/m 0,0 km/h (0 Bft) N 7 0 min 0,000 mm 0,0 UV-I 0 W/m 4,0 C 6,2 C 0,0 km/h (0 Bft) 0,00 %
29.04.2015 01:00 5,9 C 87 % 1021,3 hPa 0,0 l/m 2,9 km/h (1 Bft) SW 216 0 min 0,000 mm 0,0 UV-I 0 W/m 3,9 C 5,9 C 4,0 km/h (1 Bft) 0,00 %
29.04.2015 01:15 5,6 C 88 % 1021,3 hPa 0,0 l/m 1,4 km/h (1 Bft) W-SW 254 0 min 0,000 mm 0,0 UV-I 0 W/m 3,8 C 5,6 C 4,0 km/h (1 Bft) 0,00 %
29.04.2015 01:30 5,5 C 88 % 1021,3 hPa 0,0 l/m 4,0 km/h (1 Bft) W-SW 238 0 min 0,000 mm 0,0 UV-I 0 W/m 3,7 C 5,5 C 4,0 km/h (1 Bft) 0,00 %
29.04.2015 01:45 5,3 C 90 % 1021,4 hPa 0,0 l/m 1,4 km/h (1 Bft) W-SW 256 0 min 0,000 mm 0,0 UV-I 0 W/m 3,8 C 5,3 C 4,0 km/h (1 Bft) 0,00 %
29.04.2015 02:00 5,1 C 90 % 1021,4 hPa 0,0 l/m 7,2 km/h (2 Bft) W-SW 258 0 min 0,000 mm 0,0 UV-I 0 W/m 3,6 C 4,4 C 7,9 km/h (2 Bft) 0,00 %
29.04.2015 02:15 5,1 C 90 % 1021,5 hPa 0,0 l/m 0,4 km/h (0 Bft) S-SW 211 0 min 0,000 mm 0,0 UV-I 0 W/m 3,6 C 5,1 C 4,0 km/h (1 Bft) 0,00 %
29.04.2015 02:30 5,0 C 90 % 1021,6 hPa 0,0 l/m 0,0 km/h (0 Bft) S-SW 199 0 min 0,000 mm 0,0 UV-I 0 W/m 3,5 C 5,0 C 0,0 km/h (0 Bft) 0,00 %
29.04.2015 02:45 4,8 C 90 % 1021,5 hPa 0,0 l/m 0,0 km/h (0 Bft) SO 135 0 min 0,000 mm 0,0 UV-I 0 W/m 3,3 C 4,8 C 0,0 km/h (0 Bft) 0,00 %
29.04.2015 03:00 4,3 C 92 % 1021,8 hPa 0,0 l/m 0,0 km/h (0 Bft) S 179 0 min 0,000 mm 0,0 UV-I 0 W/m 3,1 C 4,3 C 0,0 km/h (0 Bft) 0,00 %
29.04.2015 03:15 4,0 C 93 % 1021,6 hPa 0,0 l/m 0,0 km/h (0 Bft) S-SW 192 0 min 0,000 mm 0,0 UV-I 0 W/m 3,0 C 4,0 C 0,0 km/h (0 Bft) 0,00 %
29.04.2015 03:30 4,1 C 95 % 1022,0 hPa 0,0 l/m 0,0 km/h (0 Bft) S-SW 200 0 min 0,000 mm 0,0 UV-I 0 W/m 3,4 C 4,1 C 0,0 km/h (0 Bft) 0,00 %
29.04.2015 03:45 4,3 C 95 % 1021,8 hPa 0,0 l/m 0,0 km/h (0 Bft) S 182 0 min 0,000 mm 0,0 UV-I 0 W/m 3,6 C 4,3 C 0,0 km/h (0 Bft) 0,00 %
29.04.2015 04:00 4,4 C 94 % 1021,8 hPa 0,0 l/m 0,0 km/h (0 Bft) S 182 0 min 0,000 mm 0,0 UV-I 0 W/m 3,5 C 4,4 C 0,0 km/h (0 Bft) 0,00 %
29.04.2015 04:15 4,5 C 95 % 1021,7 hPa 0,0 l/m 0,0 km/h (0 Bft) S 180 0 min 0,000 mm 0,0 UV-I 0 W/m 3,8 C 4,5 C 0,0 km/h (0 Bft) 0,00 %
29.04.2015 04:30 4,6 C 95 % 1021,8 hPa 0,0 l/m 0,0 km/h (0 Bft) S 184 0 min 0,000 mm 0,0 UV-I 0 W/m 3,9 C 4,6 C 0,0 km/h (0 Bft) 0,00 %
29.04.2015 04:45 4,6 C 95 % 1021,7 hPa 0,0 l/m 0,0 km/h (0 Bft) S 175 0 min 0,000 mm 0,0 UV-I 0 W/m 3,9 C 4,6 C 0,0 km/h (0 Bft) 0,00 %
29.04.2015 05:00 4,7 C 95 % 1021,7 hPa 0,0 l/m 0,0 km/h (0 Bft) S 180 0 min 0,000 mm 0,0 UV-I 0 W/m 4,0 C 4,7 C 0,0 km/h (0 Bft) 0,00 %
29.04.2015 05:15 4,8 C 95 % 1021,8 hPa 0,0 l/m 0,0 km/h (0 Bft) S-SW 207 0 min 0,000 mm 0,0 UV-I 0 W/m 4,1 C 4,8 C 0,0 km/h (0 Bft) 0,00 %
29.04.2015 05:30 4,9 C 95 % 1021,9 hPa 0,0 l/m 0,0 km/h (0 Bft) S 175 0 min 0,000 mm 0,0 UV-I 0 W/m 4,2 C 4,9 C 0,0 km/h (0 Bft) 0,00 %
29.04.2015 05:45 4,9 C 95 % 1021,9 hPa 0,0 l/m 0,0 km/h (0 Bft) S 186 0 min 0,000 mm 0,0 UV-I 0 W/m 4,2 C 4,9 C 0,0 km/h (0 Bft) 0,00 %
29.04.2015 06:00 5,1 C 95 % 1021,8 hPa 0,0 l/m 0,0 km/h (0 Bft) S 182 0 min 0,000 mm 0,0 UV-I 1 W/m 4,4 C 5,1 C 0,0 km/h (0 Bft) 0,00 %
29.04.2015 06:15 5,2 C 94 % 1021,8 hPa 0,0 l/m 0,4 km/h (0 Bft) SW 229 0 min 0,000 mm 0,0 UV-I 9 W/m 4,3 C 5,2 C 4,0 km/h (1 Bft) 0,00 %
29.04.2015 06:30 5,2 C 93 % 1021,6 hPa 0,0 l/m 0,0 km/h (0 Bft) S-SW 192 0 min 0,000 mm 0,0 UV-I 27 W/m 4,2 C 5,2 C 0,0 km/h (0 Bft) 0,00 %
29.04.2015 06:45 6,1 C 89 % 1020,6 hPa 0,0 l/m 0,0 km/h (0 Bft) S-SW 195 0 min 0,000 mm 1,0 UV-I 65 W/m 4,4 C 6,1 C 0,0 km/h (0 Bft) 0,00 %
29.04.2015 07:00 7,0 C 83 % 1020,5 hPa 0,0 l/m 0,0 km/h (0 Bft) S-SW 204 15 min 0,000 mm 1,0 UV-I 132 W/m 4,3 C 7,0 C 0,0 km/h (0 Bft) 0,00 %
29.04.2015 07:15 7,8 C 78 % 1020,1 hPa 0,0 l/m 0,0 km/h (0 Bft) S-SW 205 15 min 0,000 mm 1,0 UV-I 179 W/m 4,2 C 7,8 C 0,0 km/h (0 Bft) 0,00 %
29.04.2015 07:30 8,8 C 74 % 1020,2 hPa 0,0 l/m 0,4 km/h (0 Bft) W-SW 245 15 min 0,000 mm 1,0 UV-I 216 W/m 4,4 C 8,8 C 4,0 km/h (1 Bft) 0,00 %
29.04.2015 07:45 8,6 C 75 % 1020,6 hPa 0,0 l/m 0,0 km/h (0 Bft) S 178 15 min 0,000 mm 1,0 UV-I 247 W/m 4,4 C 8,6 C 0,0 km/h (0 Bft) 0,00 %
29.04.2015 08:00 8,0 C 76 % 1021,0 hPa 0,0 l/m 0,0 km/h (0 Bft) SW 221 0 min 0,000 mm 1,0 UV-I 133 W/m 4,0 C 8,0 C 0,0 km/h (0 Bft) 0,00 %
29.04.2015 08:15 8,1 C 77 % 1020,7 hPa 0,0 l/m 0,0 km/h (0 Bft) S 185 0 min 0,000 mm 1,0 UV-I 140 W/m 4,3 C 8,1 C 0,0 km/h (0 Bft) 0,00 %
29.04.2015 08:30 8,3 C 75 % 1020,2 hPa 0,0 l/m 0,0 km/h (0 Bft) SW 223 0 min 0,000 mm 2,0 UV-I 211 W/m 4,1 C 8,3 C 0,0 km/h (0 Bft) 0,00 %
29.04.2015 08:45 8,7 C 73 % 1020,2 hPa 0,0 l/m 0,0 km/h (0 Bft) W-SW 250 15 min 0,000 mm 2,0 UV-I 258 W/m 4,1 C 8,7 C 0,0 km/h (0 Bft) 0,00 %
29.04.2015 09:00 9,1 C 72 % 1020,1 hPa 0,0 l/m 0,0 km/h (0 Bft) S-SW 195 15 min 0,000 mm 2,0 UV-I 297 W/m 4,3 C 9,1 C 0,0 km/h (0 Bft) 0,00 %
29.04.2015 09:15 9,3 C 68 % 1020,1 hPa 0,0 l/m 0,0 km/h (0 Bft) SO 141 0 min 0,000 mm 2,0 UV-I 287 W/m 3,7 C 9,3 C 0,0 km/h (0 Bft) 0,00 %
29.04.2015 09:30 9,9 C 66 % 1019,7 hPa 0,0 l/m 1,4 km/h (1 Bft) O 92 0 min 0,000 mm 3,0 UV-I 260 W/m 3,9 C 9,9 C 4,0 km/h (1 Bft) 0,00 %
29.04.2015 09:45 10,7 C 62 % 1019,7 hPa 0,0 l/m 4,0 km/h (1 Bft) O 90 15 min 0,000 mm 3,0 UV-I 506 W/m 3,7 C 10,7 C 7,9 km/h (2 Bft) 0,00 %
29.04.2015 10:00 10,4 C 60 % 1019,7 hPa 0,0 l/m 0,0 km/h (0 Bft) W-SW 239 15 min 0,000 mm 2,0 UV-I 383 W/m 3,0 C 10,4 C 0,0 km/h (0 Bft) 0,00 %
29.04.2015 10:15 10,1 C 62 % 1019,6 hPa 0,0 l/m 9,4 km/h (2 Bft) O 101 0 min 0,000 mm 4,0 UV-I 277 W/m 3,2 C 8,1 C 11,9 km/h (2 Bft) 0,00 %
29.04.2015 10:30 10,9 C 58 % 1019,5 hPa 0,0 l/m 1,4 km/h (1 Bft) NO 55 15 min 0,000 mm 3,0 UV-I 555 W/m 3,0 C 10,9 C 4,0 km/h (1 Bft) 0,00 %
29.04.2015 10:45 10,6 C 58 % 1019,5 hPa 0,0 l/m 1,4 km/h (1 Bft) O-NO 57 15 min 0,000 mm 4,0 UV-I 528 W/m 2,7 C 10,6 C 4,0 km/h (1 Bft) 0,00 %
29.04.2015 11:00 11,1 C 51 % 1019,5 hPa 0,0 l/m 0,7 km/h (0 Bft) SO 143 15 min 0,000 mm 4,0 UV-I 479 W/m 1,4 C 11,1 C 4,0 km/h (1 Bft) 0,00 %
29.04.2015 11:15 11,4 C 56 % 1019,4 hPa 0,0 l/m 7,9 km/h (2 Bft) O-SO 102 15 min 0,000 mm 4,0 UV-I 588 W/m 2,9 C 10,4 C 11,9 km/h (2 Bft) 0,00 %
29.04.2015 11:30 11,5 C 52 % 1019,3 hPa 0,0 l/m 1,8 km/h (1 Bft) SO 130 15 min 0,000 mm 5,0 UV-I 614 W/m 2,0 C 11,5 C 4,0 km/h (1 Bft) 0,00 %
29.04.2015 11:45 12,3 C 49 % 1019,0 hPa 0,0 l/m 0,0 km/h (0 Bft) S 175 15 min 0,000 mm 5,0 UV-I 624 W/m 1,9 C 12,3 C 0,0 km/h (0 Bft) 0,00 %
29.04.2015 12:00 12,6 C 52 % 1018,9 hPa 0,0 l/m 4,0 km/h (1 Bft) O-NO 63 15 min 0,000 mm 5,0 UV-I 670 W/m 3,0 C 12,6 C 7,9 km/h (2 Bft) 0,00 %
29.04.2015 12:15 12,5 C 47 % 1018,7 hPa 0,0 l/m 6,5 km/h (2 Bft) SO 136 15 min 0,000 mm 5,0 UV-I 673 W/m 1,5 C 12,5 C 7,9 km/h (2 Bft) 0,00 %
29.04.2015 12:30 13,2 C 49 % 1018,3 hPa 0,0 l/m 8,3 km/h (2 Bft) O 82 15 min 0,000 mm 5,0 UV-I 710 W/m 2,7 C 12,0 C 11,9 km/h (2 Bft) 0,00 %
29.04.2015 12:45 12,7 C 44 % 1018,3 hPa 0,0 l/m 7,2 km/h (2 Bft) O-SO 112 15 min 0,000 mm 5,0 UV-I 730 W/m 0,8 C 12,2 C 7,9 km/h (2 Bft) 0,00 %
29.04.2015 13:00 13,4 C 47 % 1018,0 hPa 0,0 l/m 11,9 km/h (2 Bft) O 91 15 min 0,000 mm 6,0 UV-I 541 W/m 2,3 C 10,5 C 15,8 km/h (3 Bft) 0,00 %
29.04.2015 13:15 13,0 C 42 % 1017,7 hPa 0,0 l/m 0,7 km/h (0 Bft) O-NO 68 15 min 0,000 mm 5,0 UV-I 749 W/m 0,4 C 13,0 C 4,0 km/h (1 Bft) 0,00 %
29.04.2015 13:30 13,7 C 42 % 1017,7 hPa 0,0 l/m 4,7 km/h (1 Bft) O 92 15 min 0,000 mm 5,0 UV-I 726 W/m 1,0 C 13,7 C 11,9 km/h (2 Bft) 0,00 %
29.04.2015 13:45 13,6 C 38 % 1017,7 hPa 0,0 l/m 1,4 km/h (1 Bft) SW 230 15 min 0,000 mm 5,0 UV-I 781 W/m -0,4 C 13,6 C 4,0 km/h (1 Bft) 0,00 %
29.04.2015 14:00 14,5 C 39 % 1017,1 hPa 0,0 l/m 8,3 km/h (2 Bft) O-NO 71 15 min 0,000 mm 5,0 UV-I 805 W/m 0,7 C 13,4 C 11,9 km/h (2 Bft) 0,00 %
29.04.2015 14:15 14,1 C 40 % 1017,1 hPa 0,0 l/m 5,8 km/h (2 Bft) O-NO 75 15 min 0,000 mm 4,0 UV-I 683 W/m 0,7 C 14,1 C 7,9 km/h (2 Bft) 0,00 %
29.04.2015 14:30 14,5 C 35 % 1016,7 hPa 0,0 l/m 4,7 km/h (1 Bft) O-NO 74 15 min 0,000 mm 4,0 UV-I 764 W/m -0,8 C 14,5 C 7,9 km/h (2 Bft) 0,00 %
29.04.2015 14:45 14,0 C 38 % 1016,4 hPa 0,0 l/m 8,3 km/h (2 Bft) O-SO 106 15 min 0,000 mm 4,0 UV-I 789 W/m -0,1 C 12,9 C 11,9 km/h (2 Bft) 0,00 %
29.04.2015 15:00 14,4 C 35 % 1016,1 hPa 0,0 l/m 19,1 km/h (3 Bft) O-SO 117 15 min 0,000 mm 2,0 UV-I 706 W/m -0,9 C 9,2 C 24,1 km/h (4 Bft) 0,00 %
29.04.2015 15:15 14,3 C 36 % 1015,9 hPa 0,0 l/m 13,3 km/h (3 Bft) O-SO 120 15 min 0,000 mm 2,0 UV-I 740 W/m -0,6 C 11,0 C 19,8 km/h (3 Bft) 0,00 %
29.04.2015 15:30 14,1 C 35 % 1015,6 hPa 0,0 l/m 13,3 km/h (3 Bft) O-SO 112 15 min 0,000 mm 2,0 UV-I 717 W/m -1,1 C 10,7 C 15,8 km/h (3 Bft) 0,00 %
29.04.2015 15:45 14,1 C 33 % 1015,5 hPa 0,0 l/m 7,9 km/h (2 Bft) NO 56 15 min 0,000 mm 2,0 UV-I 683 W/m -1,9 C 13,2 C 7,9 km/h (2 Bft) 0,00 %
29.04.2015 16:00 13,9 C 36 % 1015,1 hPa 0,0 l/m 13,0 km/h (3 Bft) O-SO 105 15 min 0,000 mm 2,0 UV-I 542 W/m -0,9 C 10,6 C 19,8 km/h (3 Bft) 0,00 %
29.04.2015 16:15 13,7 C 35 % 1014,9 hPa 0,0 l/m 9,0 km/h (2 Bft) O-SO 116 15 min 0,000 mm 2,0 UV-I 494 W/m -1,5 C 12,2 C 15,8 km/h (3 Bft) 0,00 %
29.04.2015 16:30 13,7 C 35 % 1014,8 hPa 0,0 l/m 10,4 km/h (2 Bft) O-SO 121 15 min 0,000 mm 2,0 UV-I 441 W/m -1,5 C 11,5 C 15,8 km/h (3 Bft) 0,00 %
29.04.2015 16:45 13,7 C 37 % 1014,7 hPa 0,0 l/m 9,0 km/h (2 Bft) O 85 15 min 0,000 mm 2,0 UV-I 472 W/m -0,7 C 12,2 C 11,9 km/h (2 Bft) 0,00 %
29.04.2015 17:00 13,8 C 36 % 1014,8 hPa 0,0 l/m 0,4 km/h (0 Bft) N-NW 346 15 min 0,000 mm 2,0 UV-I 435 W/m -1,0 C 13,8 C 4,0 km/h (1 Bft) 0,00 %
29.04.2015 17:15 13,8 C 38 % 1014,6 hPa 0,0 l/m 14,8 km/h (3 Bft) O-SO 113 15 min 0,000 mm 2,0 UV-I 469 W/m -0,3 C 9,8 C 19,8 km/h (3 Bft) 0,00 %
29.04.2015 17:30 13,6 C 37 % 1014,4 hPa 0,0 l/m 14,4 km/h (3 Bft) O-NO 76 15 min 0,000 mm 1,0 UV-I 442 W/m -0,8 C 9,7 C 19,8 km/h (3 Bft) 0,00 %
29.04.2015 17:45 13,7 C 41 % 1014,4 hPa 0,0 l/m 10,4 km/h (2 Bft) O 100 15 min 0,000 mm 1,0 UV-I 447 W/m 0,7 C 11,5 C 11,9 km/h (2 Bft) 0,00 %
29.04.2015 18:00 13,6 C 39 % 1014,1 hPa 0,0 l/m 15,8 km/h (3 Bft) O-SO 116 15 min 0,000 mm 1,0 UV-I 531 W/m -0,1 C 9,2 C 24,1 km/h (4 Bft) 0,00 %
29.04.2015 18:15 13,4 C 39 % 1014,3 hPa 0,0 l/m 4,7 km/h (1 Bft) N-NO 21 15 min 0,000 mm 1,0 UV-I 479 W/m -0,3 C 13,4 C 7,9 km/h (2 Bft) 0,00 %
29.04.2015 18:30 13,1 C 42 % 1014,4 hPa 0,0 l/m 6,8 km/h (2 Bft) SO 124 15 min 0,000 mm 1,0 UV-I 479 W/m 0,5 C 12,9 C 11,9 km/h (2 Bft) 0,00 %
29.04.2015 18:45 12,7 C 43 % 1014,6 hPa 0,0 l/m 5,4 km/h (1 Bft) O 86 15 min 0,000 mm 1,0 UV-I 328 W/m 0,5 C 12,7 C 7,9 km/h (2 Bft) 0,00 %
29.04.2015 19:00 12,4 C 46 % 1014,6 hPa 0,0 l/m 7,2 km/h (2 Bft) O-SO 123 15 min 0,000 mm 1,0 UV-I 237 W/m 1,1 C 11,9 C 11,9 km/h (2 Bft) 0,00 %
29.04.2015 19:15 11,9 C 44 % 1014,9 hPa 0,0 l/m 4,7 km/h (1 Bft) O 98 15 min 0,000 mm 0,0 UV-I 114 W/m 0,0 C 11,9 C 7,9 km/h (2 Bft) 0,00 %
29.04.2015 19:30 11,5 C 47 % 1014,8 hPa 0,0 l/m 3,2 km/h (1 Bft) O 80 15 min 0,000 mm 0,0 UV-I 66 W/m 0,6 C 11,5 C 7,9 km/h (2 Bft) 0,00 %
29.04.2015 19:45 11,0 C 49 % 1015,2 hPa 0,0 l/m 2,2 km/h (1 Bft) O-SO 120 15 min 0,000 mm 0,0 UV-I 36 W/m 0,7 C 11,0 C 7,9 km/h (2 Bft) 0,00 %
29.04.2015 20:00 10,6 C 50 % 1015,2 hPa 0,0 l/m 4,3 km/h (1 Bft) O-SO 109 0 min 0,000 mm 0,0 UV-I 9 W/m 0,6 C 10,6 C 7,9 km/h (2 Bft) 0,00 %
29.04.2015 20:15 10,3 C 51 % 1015,2 hPa 0,0 l/m 0,0 km/h (0 Bft) O-SO 122 0 min 0,000 mm 0,0 UV-I 0 W/m 0,6 C 10,3 C 0,0 km/h (0 Bft) 0,00 %
29.04.2015 20:30 10,3 C 50 % 1015,4 hPa 0,0 l/m 4,0 km/h (1 Bft) O-SO 120 0 min 0,000 mm 0,0 UV-I 0 W/m 0,3 C 10,3 C 11,9 km/h (2 Bft) 0,00 %
29.04.2015 20:45 10,2 C 48 % 1015,4 hPa 0,0 l/m 4,7 km/h (1 Bft) S 181 0 min 0,000 mm 0,0 UV-I 0 W/m -0,3 C 10,2 C 7,9 km/h (2 Bft) 0,00 %
29.04.2015 21:00 10,1 C 48 % 1015,6 hPa 0,0 l/m 5,4 km/h (1 Bft) S 189 0 min 0,000 mm 0,0 UV-I 0 W/m -0,4 C 10,1 C 7,9 km/h (2 Bft) 0,00 %
29.04.2015 21:15 9,7 C 49 % 1015,6 hPa 0,0 l/m 4,7 km/h (1 Bft) O 101 0 min 0,000 mm 0,0 UV-I 0 W/m -0,5 C 9,7 C 7,9 km/h (2 Bft) 0,00 %
29.04.2015 21:30 9,5 C 49 % 1015,4 hPa 0,0 l/m 6,8 km/h (2 Bft) O 89 0 min 0,000 mm 0,0 UV-I 0 W/m -0,7 C 9,2 C 11,9 km/h (2 Bft) 0,00 %
29.04.2015 21:45 9,0 C 50 % 1015,5 hPa 0,0 l/m 9,0 km/h (2 Bft) O 95 0 min 0,000 mm 0,0 UV-I 0 W/m -0,9 C 7,1 C 11,9 km/h (2 Bft) 0,00 %
29.04.2015 22:00 8,5 C 51 % 1015,5 hPa 0,0 l/m 4,7 km/h (1 Bft) O-SO 106 0 min 0,000 mm 0,0 UV-I 0 W/m -1,0 C 8,5 C 7,9 km/h (2 Bft) 0,00 %
29.04.2015 22:15 8,3 C 52 % 1015,5 hPa 0,0 l/m 0,0 km/h (0 Bft) SO 139 0 min 0,000 mm 0,0 UV-I 0 W/m -1,0 C 8,3 C 0,0 km/h (0 Bft) 0,00 %
29.04.2015 22:30 7,9 C 54 % 1015,4 hPa 0,0 l/m 4,3 km/h (1 Bft) O-SO 114 0 min 0,000 mm 0,0 UV-I 0 W/m -0,8 C 7,9 C 7,9 km/h (2 Bft) 0,00 %
29.04.2015 22:45 8,0 C 51 % 1015,3 hPa 0,0 l/m 0,7 km/h (0 Bft) S 175 0 min 0,000 mm 0,0 UV-I 0 W/m -1,5 C 8,0 C 4,0 km/h (1 Bft) 0,00 %
29.04.2015 23:00 8,1 C 51 % 1015,1 hPa 0,0 l/m 0,7 km/h (0 Bft) SO 139 0 min 0,000 mm 0,0 UV-I 0 W/m -1,4 C 8,1 C 4,0 km/h (1 Bft) 0,00 %
29.04.2015 23:15 7,8 C 52 % 1015,3 hPa 0,0 l/m 0,4 km/h (0 Bft) O-SO 108 0 min 0,000 mm 0,0 UV-I 0 W/m -1,4 C 7,8 C 4,0 km/h (1 Bft) 0,00 %
29.04.2015 23:30 7,4 C 53 % 1015,3 hPa 0,0 l/m 1,8 km/h (1 Bft) O-SO 122 0 min 0,000 mm 0,0 UV-I 0 W/m -1,5 C 7,4 C 4,0 km/h (1 Bft) 0,00 %
_ Min-Zeit 03:15 15:45 18:00 - 00:15 - - - - - - 15:45 03:15 00:15 00:00
Minimum _ 4,0 C 33 % 1014,1 hPa - 0,0 km/h (0 Bft) - - - - - - -1,9 C 4,0 C 0,0 km/h (0 Bft) 0,00 %
_ Max-Zeit 14:00 03:30 03:30 00:00 15:00 - - 07:00 00:00 13:00 14:00 07:30 14:30 15:00 00:00
Maximum _ 14,5 C 95 % 1022,0 hPa 0,0 l/m 19,1 km/h
O-SO (3 Bft)
- - 15 min 0,000 mm 6,0 UV-I 805 W/m 4,4 C 14,5 C 24,1 km/h
O-SO (4 Bft)
0,00 %
Durchschnitt _ 9,5 C 62 % 1018,3 hPa #0,0 l/m 3,8 km/h (1 Bft) O-SO - #11:30 h #0,000 mm 2,7 UV-I 430 W/m 1,8 C 9,0 C 6,2 km/h (2 Bft) 0,00 %